Torna al catalogo

FENGYUN 1C DEB

AttivoSSO
NORAD 30334·DEBRIS·🇨🇳 China

Lanciato May 10, 1999 da Taiyuan Satellite Launch Center

Loading…

Prossimi Passaggi (prossime 24 ore)

TLE

AggiornatoSource: Space-Track

Epoca: Sep 14, 2026, 06:05 UTC

1 30334U 99025AAV 26257.25369051  .00001340  00000-0  97494-3 0  9995
2 30334  99.0227 354.9110 0140448 309.5262  75.3798 13.93411350990574

Traccia FENGYUN 1C DEB in tempo reale con AllMySat

Download on the App Store